Home   Weather   Virudhunagar   Past weeks

Flag for India Past Weather in Virudhunagar, Tamil Nadu, India — Yesterday and Last 2 Weeks

Now
72 °F

Fog.


Feels Like: 74 °F
Forecast: 69 / 89 °F
Wind: 3 mph from Northwest

Location: Tiruchchirapalli

Current Time: Jan 19, 2017 at 8:06:37 am

Latest Report: Jan 19, 2017 at 7:30 am


Visibility: 2 mi

Pressure: 29.98 "Hg

Humidity: 73%

Dew Point: 63 °F

Location of VirudhunagarLocation

Past Weather in Virudhunagar — Graph

°F

Virudhunagar Temperature Yesterday

Maximum temperature yesterday: 88 °F (at 2:30 pm)
Minimum temperature yesterday: 68 °F (at 4:30 am)
Average temperature yesterday: 77 °F

High & Low Weather Summary for the Past Weeks

 TemperatureHumidityPressure
High91 °F (Jan 6, 3:00 pm)94% (Jan 5, 5:30 am)30.01 "Hg (Jan 5, 5:30 am)
Low68 °F (Jan 8, 5:30 am)31% (Jan 11, 3:30 pm)29.74 "Hg (Jan 7, 5:00 pm)
Average78 °F65%29.88 "Hg
* Reported Jan 4 6:30 am — Jan 19 6:30 am, Virudhunagar, Weather by CustomWeather, © 2017

Note: Actual official high and low records may vary slightly from our data, if they occured in-between our weather recording intervals... More about our weather records

Advertising

Virudhunagar Weather History for the Previous 24 Hours

Scroll right to see more
 ConditionsComfort  
Time TempWeatherWind HumidityBarometerVisibility
6:30 am
Thu, Jan 19
70 °FFog.5 mph78%29.95 "Hg2 mi
6:00 am70 °FFog.6 mph78%29.95 "Hg2 mi
5:30 am70 °FFog.5 mph78%29.95 "Hg2 mi
5:00 am68 °FFog.5 mph83%29.92 "Hg2 mi
4:30 am68 °FFog.5 mph83%29.92 "Hg2 mi
4:00 am68 °FFog.5 mph83%29.95 "Hg2 mi
3:30 am68 °FFog.5 mph83%29.95 "Hg2 mi
3:00 am68 °FFog.5 mph83%29.95 "Hg2 mi
2:30 am70 °FFog.5 mph78%29.95 "Hg2 mi
2:00 am70 °FFog.7 mph83%29.95 "Hg2 mi
1:30 am70 °FFog.5 mph83%29.98 "Hg2 mi
1:00 am72 °FFog.7 mph78%29.98 "Hg2 mi
12:30 am72 °FFog.6 mph78%29.98 "Hg2 mi
12:00 am72 °FFog.5 mph78%29.98 "Hg2 mi
11:30 pm
Wed, Jan 18
72 °FFog.No wind78%29.98 "Hg2 mi
11:00 pm73 °FHaze.2 mph74%29.98 "Hg2 mi
10:30 pm75 °FHaze.No wind69%30.01 "Hg2 mi
10:00 pm75 °FHaze.No wind69%30.01 "Hg2 mi
9:30 pm75 °FHaze.5 mph69%30.01 "Hg3 mi
9:00 pm77 °FHaze.6 mph65%29.98 "Hg3 mi
8:30 pm77 °FHaze.9 mph65%29.98 "Hg3 mi
8:00 pm79 °FHaze.12 mph58%29.98 "Hg3 mi
7:30 pm79 °FHaze.12 mph58%29.95 "Hg3 mi
7:00 pm79 °FHaze.13 mph58%29.95 "Hg3 mi
6:30 pm81 °FHaze.9 mph54%29.92 "Hg3 mi
6:00 pm82 °FHaze.9 mph51%29.92 "Hg3 mi
5:30 pm84 °FPassing clouds.8 mph48%29.89 "Hg4 mi
5:00 pm86 °FPassing clouds.9 mph46%29.89 "Hg4 mi
4:30 pm86 °FScattered clouds.10 mph46%29.89 "Hg4 mi
4:00 pm86 °FScattered clouds.10 mph46%29.89 "Hg4 mi
3:30 pm88 °FScattered clouds.9 mph43%29.89 "Hg3 mi
3:00 pm88 °FScattered clouds.9 mph43%29.89 "Hg3 mi
2:30 pm88 °FScattered clouds.9 mph40%29.89 "Hg3 mi
2:00 pm86 °FScattered clouds.9 mph35%29.89 "Hg3 mi
1:30 pm86 °FScattered clouds.12 mph38%29.92 "Hg3 mi
1:00 pm86 °FScattered clouds.9 mph38%29.95 "Hg3 mi
12:30 pm86 °FScattered clouds.9 mph38%29.95 "Hg3 mi
12:00 pm84 °FScattered clouds.12 mph43%29.98 "Hg2 mi
11:30 am84 °FHaze.12 mph43%29.98 "Hg2 mi
11:00 am84 °FHaze.9 mph43%30.01 "Hg2 mi
10:30 am82 °FHaze.12 mph45%30.01 "Hg2 mi
10:00 am81 °FHaze.12 mph48%30.01 "Hg2 mi
9:30 am79 °FHaze.12 mph51%30.01 "Hg2 mi
9:00 am77 °FHaze.12 mph57%30.01 "Hg1 mi
8:30 am75 °FHaze.10 mph61%30.01 "Hg1 mi
8:00 am72 °FHaze.8 mph69%29.98 "Hg1 mi
Weather by CustomWeather, © 2017

See weather overviewHow to use our weather pages